CW5302 Weather Reports


Display with metric or nautical units.
time (UTC)temp
F
wind
direction
speed
MPH
gust
MPH
rain 1hr
in
rain 24hr
in
rain mn
in
humidity
%
barometer
mb
20260901003327 81 305 4.0 13.0 0.00 0.00 0.00 37 1004.5
20260901002325 84 294 5.0 12.0 0.00 0.00 0.00 34 1004.1
20260901001323 84 310 4.0 12.0 0.00 0.00 0.00 35 1004.0
20260901000322 85 294 4.0 14.0 0.00 0.00 0.00 36 1004.0
20260831235338 85 307 3.0 13.0 0.00 0.00 0.00 35 1004.0
20260831234315 86 303 2.0 14.0 0.00 0.00 0.00 35 1003.7
20260831233315 87 360 6.0 13.0 0.00 0.00 0.00 32 1003.7
20260831232353 87 296 3.0 13.0 0.00 0.00 0.00 33 1003.6
20260831231332 88 321 8.0 14.0 0.00 0.00 0.00 32 1003.6
20260831230330 88 246 6.0 12.0 0.00 0.00 0.00 30 1003.6
20260831225328 88 334 4.0 13.0 0.00 0.00 0.00 31 1003.5
20260831224325 88 11 4.0 9.0 0.00 0.00 0.00 29 1003.6
20260831223324 89 265 2.0 8.0 0.00 0.00 0.00 29 1003.6
20260831222322 89 308 3.0 9.0 0.00 0.00 0.00 28 1003.6
20260831221322 89 338 5.0 8.0 0.00 0.00 0.00 28 1003.7
20260831220320 88 344 2.0 8.0 0.00 0.00 0.00 28 1003.7
20260831215321 88 304 0.0 7.0 0.00 0.00 0.00 30 1004.0
20260831214319 87 284 0.0 8.0 0.00 0.00 0.00 30 1004.1
20260831213318 86 254 2.0 6.0 0.00 0.00 0.00 29 1004.1
20260831212319 86 360 1.0 7.0 0.00 0.00 0.00 28 1004.3
20260831211317 86 271 1.0 9.0 0.00 0.00 0.00 29 1004.6
20260831210337 84 234 1.0 5.0 0.00 0.00 0.00 29 1004.6
20260831205336 83 265 1.0 5.0 0.00 0.00 0.00 30 1004.7
20260831204313 83 260 1.0 4.0 0.00 0.00 0.00 30 1005.1
20260831203332 82 350 1.0 7.0 0.00 0.00 0.00 31 1005.1
20260831202330 82 297 0.0 2.0 0.00 0.00 0.00 32 1005.3
20260831201327 80 296 1.0 3.0 0.00 0.00 0.00 32 1005.6
20260831200326 80 264 1.0 5.0 0.00 0.00 0.00 34 1005.6
20260831195344 79 211 2.0 7.0 0.00 0.00 0.00 35 1005.7
20260831194322 79 284 2.0 5.0 0.00 0.00 0.00 37 1005.7
20260831193322 78 277 2.0 5.0 0.00 0.00 0.00 38 1005.7
20260831192322 77 293 1.0 3.0 0.00 0.00 0.00 40 1006.1
20260831191319 76 202 0.0 2.0 0.00 0.00 0.00 41 1006.2
20260831190319 75 233 0.0 3.0 0.00 0.00 0.00 42 1006.2
20260831185318 75 222 1.0 4.0 0.00 0.00 0.00 42 1006.7
20260831184317 75 311 0.0 2.0 0.00 0.00 0.00 42 1006.9
20260831183317 74 317 0.0 2.0 0.00 0.00 0.00 46 1006.9
20260831182338 73 35 0.0 2.0 0.00 0.00 0.00 47 1007.0
20260831181321 72 134 0.0 2.0 0.00 0.00 0.00 48 1007.2
20260831180320 71 134 0.0 3.0 0.00 0.00 0.00 50 1007.2
20260831175320 71 173 1.0 2.0 0.00 0.00 0.00 51 1007.3
20260831174319 70 263 0.0 1.0 0.00 0.00 0.00 53 1007.5
20260831173318 69 44 0.0 2.0 0.00 0.00 0.00 55 1007.5
20260831172315 68 10 0.0 3.0 0.00 0.00 0.00 55 1007.5
20260831171333 68 355 0.0 3.0 0.00 0.00 0.00 55 1007.7
20260831170334 67 340 0.0 1.0 0.00 0.00 0.00 56 1007.7
20260831165312 67 340 0.0 2.0 0.00 0.00 0.00 58 1007.8
20260831164331 66 355 0.0 0.0 0.00 0.00 0.00 59 1007.8
20260831163330 64 355 0.0 0.0 0.00 0.00 0.00 63 1007.8
20260831162328 63 355 0.0 0.0 0.00 0.00 0.00 63 1008.0
20260831161349 62 355 0.0 0.0 0.00 0.00 0.00 63 1008.2
20260831160327 60 355 0.0 0.0 0.00 0.00 0.00 66 1008.2
20260831155325 58 355 0.0 0.0 0.00 0.00 0.00 68 1008.3
20260831154326 56 355 0.0 0.0 0.00 0.00 0.00 71 1008.3
20260831153325 54 355 0.0 0.0 0.00 0.00 0.00 79 1008.3
20260831152322 52 355 0.0 0.0 0.00 0.00 0.00 81 1008.4
20260831151321 51 355 0.0 0.0 0.00 0.00 0.00 84 1008.4
20260831150324 50 355 0.0 0.0 0.00 0.00 0.00 86 1008.4
20260831145322 49 355 0.0 0.0 0.00 0.00 0.00 88 1008.4
20260831144321 48 355 0.0 0.0 0.00 0.00 0.00 89 1008.3
20260831143322 48 355 0.0 0.0 0.00 0.00 0.00 89 1008.3
20260831142320 47 355 0.0 0.0 0.00 0.00 0.00 89 1008.2
20260831141318 47 355 0.0 0.0 0.00 0.00 0.00 89 1008.2
20260831140318 47 355 0.0 0.0 0.00 0.00 0.00 89 1008.2
20260831135318 47 355 0.0 0.0 0.00 0.00 0.00 89 1008.2
20260831134315 47 355 0.0 0.0 0.00 0.00 0.00 89 1008.2
20260831133315 47 355 0.0 0.0 0.00 0.00 0.00 88 1008.2
20260831132335 47 355 0.0 0.0 0.00 0.00 0.00 88 1008.2
20260831131315 47 355 0.0 0.0 0.00 0.00 0.00 88 1008.2
20260831130315 47 355 0.0 0.0 0.00 0.00 0.00 87 1008.2
20260831125315 48 355 0.0 0.0 0.00 0.00 0.00 87 1008.2
20260831124315 48 355 0.0 0.0 0.00 0.00 0.00 87 1008.2
20260831123337 48 355 0.0 0.0 0.00 0.00 0.00 87 1008.2
20260831122320 48 355 0.0 0.0 0.00 0.00 0.00 86 1008.3
20260831121318 48 355 0.0 0.0 0.00 0.00 0.00 85 1008.3
20260831120318 48 355 0.0 0.0 0.00 0.00 0.00 85 1008.3
20260831115316 48 355 0.0 0.0 0.00 0.00 0.00 85 1008.3
20260831114314 49 355 0.0 0.0 0.00 0.00 0.00 85 1008.3
20260831113312 49 355 0.0 0.0 0.00 0.00 0.00 85 1008.3
20260831112311 49 355 0.0 0.0 0.00 0.00 0.00 85 1008.3
20260831111351 49 355 0.0 0.0 0.00 0.00 0.00 85 1008.3
20260831110330 50 355 0.0 0.0 0.00 0.00 0.00 86 1008.3
20260831105327 50 355 0.0 0.0 0.00 0.00 0.00 87 1008.3
20260831104327 50 355 0.0 0.0 0.00 0.00 0.00 87 1008.3
20260831103327 50 355 0.0 0.0 0.00 0.00 0.00 86 1008.3
20260831102325 50 355 0.0 0.0 0.00 0.00 0.00 85 1008.3
20260831101323 51 355 0.0 0.0 0.00 0.00 0.00 85 1008.4
20260831100324 51 355 0.0 0.0 0.00 0.00 0.00 85 1008.4
20260831095322 51 355 0.0 0.0 0.00 0.00 0.00 84 1008.6
20260831094319 51 355 0.0 0.0 0.00 0.00 0.00 82 1008.7
20260831093323 51 355 0.0 0.0 0.00 0.00 0.00 81 1008.7
20260831092322 52 355 0.0 0.0 0.00 0.00 0.00 80 1008.7
20260831091322 52 355 0.0 0.0 0.00 0.00 0.00 80 1008.8
20260831090321 52 355 0.0 0.0 0.00 0.00 0.00 78 1008.8
20260831085320 53 355 0.0 0.0 0.00 0.00 0.00 79 1008.8
20260831084339 53 355 0.0 0.0 0.00 0.00 0.00 80 1008.8
20260831083318 54 355 0.0 0.0 0.00 0.00 0.00 80 1008.8
20260831082318 54 355 0.0 0.0 0.00 0.00 0.00 79 1008.8
20260831081317 54 355 0.0 0.0 0.00 0.00 0.00 80 1008.9
20260831080338 55 355 0.0 0.0 0.00 0.00 0.00 80 1008.9
20260831075316 55 355 0.0 0.0 0.00 0.00 0.00 78 1009.1
20260831074314 55 355 0.0 0.0 0.00 0.00 0.00 77 1009.2
20260831073335 56 355 0.0 0.0 0.00 0.00 0.00 76 1009.2
20260831072331 56 355 0.0 0.0 0.00 0.00 0.00 74 1009.2
20260831071330 56 355 0.0 0.0 0.00 0.00 0.00 71 1009.3
20260831070312 57 355 0.0 0.0 0.00 0.00 0.00 69 1009.3
20260831065330 57 355 0.0 0.0 0.00 0.00 0.00 69 1009.5
20260831064330 58 355 0.0 0.0 0.00 0.00 0.00 67 1009.5
20260831063328 58 355 0.0 0.0 0.00 0.00 0.00 67 1009.5
20260831062311 59 355 0.0 0.0 0.00 0.00 0.00 67 1009.5
20260831061330 59 355 0.0 0.0 0.00 0.00 0.00 67 1009.7
20260831060330 60 355 0.0 0.0 0.00 0.00 0.00 66 1009.7
20260831055329 60 355 0.0 0.0 0.00 0.00 0.00 67 1009.8
20260831054329 61 355 0.0 0.0 0.00 0.00 0.00 65 1009.9
20260831053349 61 355 0.0 0.0 0.00 0.00 0.00 64 1009.9
20260831052324 62 355 0.0 0.0 0.00 0.00 0.00 63 1009.9
20260831051323 62 355 0.0 0.0 0.00 0.00 0.00 59 1009.9
20260831050323 62 355 0.0 0.0 0.00 0.00 0.00 56 1009.9
20260831045320 63 355 0.0 0.0 0.00 0.00 0.00 57 1010.1
20260831044339 64 355 0.0 0.0 0.00 0.00 0.00 56 1010.2
20260831043318 64 355 0.0 0.0 0.00 0.00 0.00 56 1010.2
20260831042317 66 355 0.0 0.0 0.00 0.00 0.00 55 1009.9
20260831041336 66 355 0.0 0.0 0.00 0.00 0.00 53 1009.9
20260831040314 67 355 0.0 0.0 0.00 0.00 0.00 52 1009.9
20260831035311 68 5 0.0 0.0 0.00 0.00 0.00 49 1009.8
20260831034312 69 5 0.0 0.0 0.00 0.00 0.00 43 1009.5
20260831033329 71 5 0.0 0.0 0.00 0.00 0.00 40 1009.5
20260831032326 72 5 0.0 8.0 0.00 0.00 0.00 37 1009.5
20260831031324 72 44 0.0 5.0 0.00 0.00 0.00 36 1009.4
20260831030324 73 5 0.0 4.0 0.00 0.00 0.00 35 1009.4
20260831025321 74 309 1.0 5.0 0.00 0.00 0.00 34 1009.3
20260831024340 75 14 0.0 6.0 0.00 0.00 0.00 33 1009.3
20260831023321 75 315 3.0 7.0 0.00 0.00 0.00 32 1009.3
20260831022321 76 11 2.0 9.0 0.00 0.00 0.00 31 1009.3
20260831021321 76 328 3.0 10.0 0.00 0.00 0.00 31 1009.3
20260831020320 77 26 1.0 9.0 0.00 0.00 0.00 31 1009.3
20260831015319 78 329 4.0 9.0 0.00 0.00 0.00 29 1009.4
20260831014318 79 330 1.0 11.0 0.00 0.00 0.00 29 1009.4
20260831013318 79 322 0.0 7.0 0.00 0.00 0.00 27 1009.4
20260831012335 81 345 3.0 13.0 0.00 0.00 0.00 27 1009.5
20260831011313 81 34 2.0 7.0 0.00 0.00 0.00 26 1009.5
20260831010334 81 360 3.0 10.0 0.00 0.00 0.00 26 1009.5
20260831005312 82 337 3.0 8.0 0.00 0.00 0.00 26 1009.8
20260831004312 82 342 4.0 10.0 0.00 0.00 0.00 25 1009.8